Regional Weather Roundup
Issued by NWS

Home | Current Version | Previous Version | Graphics & Text | Print | Product List | Glossary On
Versions: 1 2 3 4 5 6 7 8 9 10 11 12 13 14 15 16 17 18 19 20 21 22 23 24 25 26 27
000
ASUS45 KBOU 131510
RWRCO

WEATHER ROUNDUP FOR COLORADO
NATIONAL WEATHER SERVICE DENVER/BOULDER CO
800 AM MST WED DEC 13 2017

NOTE: "FAIR" INDICATES FEW OR NO CLOUDS BELOW 12000 FEET WITH NO
SIGNIFICANT WEATHER AND/OR OBSTRUCTIONS TO VISIBILITY.

COZ001>005-013-030-031-131600-
...NORTHWEST COLORADO...

CITY           SKY/WX    TMP DP  RH WIND       PRES   REMARKS
CRAIG          CLOUDY    17  12  80 CALM      30.26S
HAYDEN         CLOUDY    25  15  66 SE13      30.26R WCI  14
MEEKER         CLOUDY    21  13  71 CALM      30.25F
RABBIT EARS PA CLOUDY    25   5  42 W9        30.26F WCI  15
STEAMBOAT SPGS CLOUDY    17  13  84 CALM      30.26R
WALDEN         FAIR      18   9  68 CALM      30.24S
$$

COZ006>008-011-131600-
...WEST CENTRAL VALLEYS...

CITY           SKY/WX    TMP DP  RH WIND       PRES   REMARKS
GRAND JUNCTION FAIR      19   9  65 CALM      30.26S
MONTROSE       FAIR      21   9  59 S9        30.28S WCI  11
EAGLE          CLOUDY    12   7  80 N3        30.34F
RIFLE          FAIR      19  10  68 CALM      30.29S
DELTA          FAIR      21   8  56 N5        30.28S WCI  14
NUCLA          FAIR      19   5  53 E10       30.29S WCI   8
$$

COZ017>023-064>068-131600-
...SOUTHWEST COLORADO...

CITY           SKY/WX    TMP DP  RH WIND       PRES   REMARKS
DURANGO        FAIR      16   3  56 NE5       30.22S WCI   9
CORTEZ         FAIR      13   4  67 E7        30.24S WCI   3
PAGOSA SPRINGS FAIR      21   3  45 CALM      30.22S
TELLURIDE      FAIR      29   2  32 SE8       30.31S WCI  21
WOLF CREEK PAS FAIR      30 -15  13 NW8G17    30.38S WCI  23
$$

COZ009-010-012-014-032>034-037-058>063-131600-
...CENTRAL COLORADO...

CITY           SKY/WX    TMP DP  RH WIND       PRES   REMARKS
ASPEN          FAIR      21   9  59 S7        30.26S WCI  12
BUENA VISTA    FAIR      22   6  51 S3        30.24F
COPPER MTN     NOT AVBL
BERTHOUD PASS  CLOUDY    19   9  63 NW25G32   30.29R WCI   2
COTTONWOOD PAS FAIR      39 -15   9 W10       30.27F
GUNNISON       FAIR       4   1  88 NE3       30.36R
KREMMLING      CLOUDY    14  10  85 CALM      30.31F
LEADVILLE      CLOUDY    27   2  34 VRB5      30.27S WCI  22
MONARCH PASS   MOCLDY    28 -13  16 NW13      30.44F WCI  18
SALIDA         FAIR      31   7  36 CALM      30.31F
SUNLIGHT       FAIR      28   3  34 W5        30.35F WCI  23
WILKERSON PASS CLOUDY    32 -18  10 NW10G18   30.31S WCI  24
$$

COZ069>075-131600-
...SAN LUIS VALLEY/SANGRE DE CRISTO MOUNTAINS...

CITY           SKY/WX    TMP DP  RH WIND       PRES   REMARKS
ALAMOSA        FAIR      10  -1  61 W3        30.25S
DEL NORTE      FAIR      26   4  39 W9        30.26S WCI  16
LA VETA PASS   FAIR      30   3  31 NW8G20      N/A  WCI  23
SAGUACHE       FAIR      30   7  37 NW12      30.26S WCI  21
$$

COZ035-036-038>040-131600-
...NORTHERN COLORADO FRONT RANGE...

CITY           SKY/WX    TMP DP  RH WIND       PRES   REMARKS
DENVER INTL AP MOCLDY    37   9  31 SW10      30.17R
DMNS CITY PARK NOT AVBL
AURORA         MOCLDY    36   8  31 S6        30.18R
FRONT RANGE AP MOCLDY    39  10  30 E10       30.16S
ERIE MUNI ARPT MOCLDY    41   6  24 S7        30.21F
BOULDER MUN AP FAIR      43   9  24 S6        30.16S
CENTENNIAL     MOCLDY    39   8  27 S6        30.18R
BROOMFIELD     MOCLDY    41   7  24 S6        30.17R
FORT COLLINS   MOCLDY    38  14  37 VRB5      30.15R
LONGMONT       FAIR      41   9  26 SW3       30.17S
$$

COZ041-046-047-076>085-087-088-131600-
...PIKES PEAK/PALMER DIVIDE AND SOUTHERN FOOTHILLS...

CITY           SKY/WX    TMP DP  RH WIND       PRES   REMARKS
COLO. SPRINGS  MOCLDY    41   6  23 NE26G36   30.14S
A. F. ACADEMY  CLOUDY    38   3  23 N16       30.17R
SCHRIEVER AFB  MOCLDY    39   4  23 N16G22    30.15S
CHEYENNE MTN   MOCLDY    41   0  18 N14G24    30.10R
ELLICOTT         N/A    N/A N/A N/A NE17G24   30.13S
FALCON         MOCLDY    37   3  24 N13G21    30.18S
FORT CARSON    MOCLDY    43   4  20 N16       30.13R
LIMON          FAIR      40   9  28 NW10      30.16R
MONUMENT HILL  MOCLDY    32   7  34 NE6       30.21R WCI  26
CANON CITY     FAIR      48   9  20 NW8       30.13R
WALSENBURG     FAIR      45   9  23 E13       30.19R
TRINIDAD       FAIR      36  11  35 NE9       30.18R
$$

COZ042>045-048>051-090-091-131600-
...NORTHEAST COLORADO...

CITY           SKY/WX    TMP DP  RH WIND       PRES   REMARKS
GREELEY ARPT   FAIR      38   9  30 N14       30.15R
AKRON          FAIR      42  11  28 MISG      30.13R
BURLINGTON     FAIR      41  12  30 NW13      30.11R
WRAY           FAIR      43  12  28 NW12      30.09S
YUMA           FAIR      41  12  30 NW16G23   30.11R
STERLING       FAIR      41  14  33 NW16      30.12R
HOLYOKE        FAIR      45  12  26 NW16G22   30.06S
FORT MORGAN    FAIR      42   8  24 N20       30.15S
$$

COZ086-089-092>099-131600-
...SOUTHEAST COLORADO...

CITY           SKY/WX    TMP DP  RH WIND       PRES   REMARKS
PUEBLO         FAIR      30  10  43 W8        30.15R WCI  22
LA JUNTA       FAIR      34  14  43 W5        30.14R WCI  30
LAMAR          FAIR      40  13  33 SW3       30.10R
SPRINGFIELD      N/A     41  11  29 N16       30.10R
$$




USA.gov is the U.S. government's official web portal to all federal, state and local government web resources and services.